Hourly Data Report for August 03, 2021

KENORA A
ONTARIO
Current Station Operator: NAVCAN

49°47'18.000" N
94°21'47.000" W
409.70 m
6034076
71850
YQK

Download Data

Hourly Data (August 2021)
Hourly Data Report for August 3, 2021
TIME
LST
Temp Definition
°C
Dew Point Definition
°C
Rel Hum Definition
%
Precip. Amount Definition
mm

Wind Dir Definition
10's deg

Wind Spd Definition
km/h
Visibility Definition
km
Stn Press Definition
kPa
Hmdx Definition


Wind Chill Definition


Weather Definition


00:00 20.6 14.8 69   23 7 12.9 96.78     Clear
01:00 20.6 14.5 68   27 7 16.1 96.76     LegendNANA
02:00 19.8 15.6 76   25 7 12.9 96.75     LegendNANA
03:00 19.1 16.5 85   24 9 16.1 96.76     Mostly Cloudy
04:00 18.0 17.3 96   22 8 16.1 96.75     LegendNANA
05:00 18.3 17.6 96   23 8 12.9 96.76     LegendNANA
06:00 18.5 17.0 91   24 8 8.1 96.77     Fog,Smoke
07:00 20.0 15.8 77   25 9 9.7 96.79     Smoke
08:00 22.4 14.1 59   27 9 8.1 96.78 26   Smoke
09:00 24.6 14.2 52   27 9 8.1 96.79 28   Smoke
10:00 26.1 14.3 48   24 11 8.1 96.76 30   Smoke
11:00 27.3 14.8 46   24 14 8.1 96.75 31   Smoke
12:00 29.1 14.8 41   25 18 8.1 96.70 33   Smoke
13:00 30.1 14.7 39   23 15 9.7 96.66 34   Smoke
14:00 29.9 14.0 37   22 20 8.1 96.63 33   Smoke
15:00 31.1 13.3 33   22 18 9.7 96.61 34   Smoke
16:00 30.8 11.7 30   24 21 9.7 96.59 33   Smoke
17:00 30.1 15.1 40   22 15 8.1 96.58 34   Smoke
18:00 28.5 14.9 43   22 15 9.7 96.57 32   Smoke
19:00 26.9 15.4 49   21 10 9.7 96.56 31   Smoke
20:00 25.1 14.7 52   22 9 9.7 96.57 29   Smoke
21:00 24.3 13.9 52   23 9 9.7 96.58 28   Smoke
22:00 23.8 14.0 54   23 10 16.1 96.56 27   LegendNANA
23:00 23.2 14.3 57   21 12 16.1 96.53 27   LegendNANA

Notes on Data Quality.

Legend

  • E = Estimated
  • M = Missing
  • NA = Not Available*
  • [empty] = Indicates an unobserved value
Date modified: